Location: Long Island Community Building
(39.9491°N, 99.5338°W)
Time: 16:01:45
(UTC+00:00)

Cosmos 1844 - Pass Details

Date: 06 December 2019
Orbit: 824 x 866 km, 70.9° (Epoch: 28 January)

Event Time Altitude Azimuth Distance (km) Brightness Sun altitude
Rises 23:43:19 0° 336° (NNW) 3,425 6.9 -6.0°
Reaches altitude 10° 23:45:47 10° 337° (NNW) 2,479 6.1 -6.5°
Maximum altitude 23:51:30 89° 70° (ENE) 846 3.7 -7.5°
Drops below altitude 10° 23:57:06 10° 158° (SSE) 2,435 6.1 -8.5°
Sets 23:59:30 0° 158° (SSE) 3,360 6.8 -8.9°
